{"data":{"norad_id":68503,"intl_designator":"2026-067CR","name":"FLYLAB2","alt_names":[],"object_type":"PAYLOAD","status":"ACTIVE","operator":null,"country":"FR","launch_date":"2026-03-30","launch_site_code":"AFWTR","launch_vehicle":null,"mission":null,"orbit_class":"UNKNOWN","rcs_meters":null,"size_class":null,"mass_kg":null,"dimensions":null,"purposes":[],"wikipedia_slug":null,"has_3d_model":false,"image_url":null,"decayed_at":null,"tle_current":{"epoch":"2026-09-18T15:09:50.395392Z","epoch_age_seconds":227848,"freshness":"STALE","line1":"1 68503U 26067CR  26261.63183328  .00001962  00000+0  18735-3 0  9998","line2":"2 68503  97.7672 218.2409 0006401 131.1686 229.0087 14.94420561 25646","mean_motion":14.94420561,"eccentricity":0.0006401,"inclination_deg":97.7672,"raan_deg":218.2409,"arg_perigee_deg":131.1686,"mean_anomaly_deg":229.0087,"bstar":0.00018735,"rev_number":2564,"period_min":96.358417274212,"perigee_km":579.71528260904,"apogee_km":588.62843040714,"semimajor_km":6962.3088565081,"source":"CELESTRAK","updated_at":"2026-09-20T09:00:24.262384Z"}}}